Regional Weather Roundup
Issued by NWS Little Rock, AR

Home | Current Version | Previous Version | Graphics & Text | Print | Product List | Glossary On
Versions: 1 2 3 4 5 6 7 8 9 10 11 12 13 14 15 16 17 18 19 20 21 22 23 24 25 26 27 28 29 30 31 32 33 34 35 36 37 38 39 40 41 42 43 44 45 46 47 48 49 50
740
ASUS44 KLZK 300505
RWRLZK

WEATHER ROUNDUP FOR ARKANSAS
NATIONAL WEATHER SERVICE LITTLE ROCK AR
1200 AM CDT TUE AUG 30 2016

NOTE: "FAIR" INDICATES FEW OR NO CLOUDS BELOW 12,000 FEET WITH NO
SIGNIFICANT WEATHER AND/OR OBSTRUCTIONS TO VISIBILITY.

ARZ001-003-010-029-300600-
NORTHWEST ARKANSAS

CITY           SKY/WX    TMP DP  RH WIND       PRES   REMARKS
FAYETTEVILLE   CLOUDY    73  72  96 CALM      30.15F
FORT SMITH     CLOUDY    75  70  84 NE3       30.09S
HARRISON       CLOUDY    70  69  97 CALM      30.17S
BENTONVILLE    PTCLDY    73  66  78 CALM      30.17S
ROGERS         CLEAR     71  69  93 CALM      30.17S
SILOAM SPGS    PTCLDY    73  63  68 CALM      30.14F
HIGHFILL       PTCLDY    74  71  91 N3        30.16S
$$

ARZ004-005-016-300600-
NORTH CENTRAL ARKANSAS

CITY           SKY/WX    TMP DP  RH WIND       PRES   REMARKS
BATESVILLE     CLEAR     75  73  94 W3        30.10S
FLIPPIN        PTCLDY    73  70  88 CALM      30.11S
MTN HOME       PTCLDY    74  73  97 CALM      30.14S
$$

ARZ040-041-300600-
WEST CENTRAL ARKANSAS

CITY           SKY/WX    TMP DP  RH WIND       PRES   REMARKS
MENA           CLEAR     73  72  94 CALM      30.13R
MOUNT IDA      CLEAR     75  73  93 CALM      30.08S
$$

ARZ009-017-025-026-028-300600-
NORTHEAST ARKANSAS

CITY           SKY/WX    TMP DP  RH WIND       PRES   REMARKS
JONESBORO      CLEAR     79  76  90 NE7       30.08S
NEWPORT        CLEAR     76  75  97 MISG      30.08S
WALNUT RIDGE   PTCLDY    79  73  83 N5        30.09S
BLYTHEVILLE    PTCLDY    77  75  93 CALM      30.08F
$$

ARZ022-023-033-042-044-300600-
CENTRAL ARKANSAS

CITY           SKY/WX    TMP DP  RH WIND       PRES   REMARKS
LITTLE ROCK    CLEAR     81  72  74 N3        30.06S HX  85
JACKSONVILLE   CLEAR     80  76  87 CALM      30.06S
SEARCY         CLEAR     79  75  87 N5        30.08F
HOT SPRINGS    CLEAR     79  75  87 NW3       30.08R
RUSSELLVILLE   PTCLDY    74  73  97 CALM      30.09R FOG
$$

ARZ036-300600-
EAST ARKANSAS

CITY           SKY/WX    TMP DP  RH WIND       PRES   REMARKS
WEST MEMPHIS   PTCLDY    78  75  90 NE5       30.05F
$$

ARZ050-053-066-070-073-300600-
SOUTHWEST ARKANSAS

CITY           SKY/WX    TMP DP  RH WIND       PRES   REMARKS
ARKADELPHIA    FAIR      79  75  87 NE5       30.05F
TEXARKANA      PTCLDY    76  75  97 NE5       30.05R
EL DORADO      CLOUDY    75  73  93 CALM      30.04S
DE QUEEN       CLEAR     77  75  93 CALM      30.05R
$$

ARZ056-057-069-300600-
SOUTHEAST ARKANSAS

CITY           SKY/WX    TMP DP  RH WIND       PRES   REMARKS
PINE BLUFF     PTCLDY    76  73  91 N3        30.05S
STUTTGART      CLOUDY    79  73  83 NE5       30.06S
MONTICELLO     CLOUDY    79  73  82 CALM      30.04S

$$






USA.gov is the U.S. government's official web portal to all federal, state and local government web resources and services.